Flag for U.S.A. Weather past 2 weeks in Wake Island, Wake Island, U.S.A.

Now
82 °F

Sunny.


Feels Like: 91 °F
Forecast: 77 / 88 °F
Wind: 12 mph from Southwest

Location: Wake Island Airfld

Current Time: Oct 22, 2014 at 2:43:27 PM

Latest Report: Oct 22, 2014 at 1:58 PM


Visibility: N/A

Pressure: 29.82 "Hg

Humidity: 83%

Dew point: 77 °F

Location of Wake IslandLocation

Historic Weather in Wake Island — Graph

°F

Wake Island temperature yesterday

Maximum temperature yesterday: 87 °F (at 3:58 PM)
Minimum temperature yesterday: 77 °F (at 9:58 PM)
Average temperature yesterday: 84 °F

Past Weeks' High & Low Weather Summary

 TemperatureHumidityPressure
High89 °F (Oct 16, 11:58 AM)100% (Oct 18, 3:03 AM)30.01 "Hg (Oct 18, 3:03 AM)
Low75 °F (Oct 17, 5:04 PM)63% (Oct 11, 2:58 PM)29.80 "Hg (Oct 19, 3:58 PM)
Average83 °F80%29.90 "Hg
* Reported Oct 7 12:58 PM — Oct 22 12:58 PM, Wake Island, Weather by CustomWeather, © 2014

Note: Actual official high and low records may vary slightly from our data, if they occured in-between our weather recording intervals... More about our weather records

Advertising

Wake Island weather history for previous 24 hours

 ConditionsComfort  
Time TempWeatherWind HumidityBarometerVisibility
12:58 PM
Oct 22
82 °FSunny.18 mph83%29.82 "HgN/A
11:58 AM81 °FSunny.17 mph83%29.84 "HgN/A
10:58 AM81 °FSunny.18 mph86%29.87 "HgN/A
9:58 AM80 °FLight rain. Partly sunny.20 mph88%29.88 "HgN/A
8:58 AM78 °FLight rain. Overcast.23 mph90%29.87 "HgN/A
7:58 AM78 °FRain. Overcast.21 mph94%29.88 "HgN/A
7:03 AM77 °FRain. Fog.15 mph94%29.89 "Hg4 mi
6:58 AM76 °FRain. Fog.16 mph97%29.92 "Hg2 mi
6:04 AM79 °FHeavy rain. Fog.26 mph94%29.85 "Hg1 mi
5:59 AM79 °FThundershowers. Overcast.22 mph89%29.84 "HgN/A
4:58 AM83 °FPassing clouds.8 mph84%29.86 "HgN/A
3:58 AM82 °FMostly cloudy.8 mph88%29.84 "HgN/A
2:58 AM82 °FPassing clouds.8 mph90%29.86 "HgN/A
1:58 AM82 °FClear.7 mph89%29.87 "HgN/A
1:03 AM81 °FPassing clouds.7 mph89%29.87 "HgN/A
12:58 AM81 °FPassing clouds.7 mph87%29.89 "HgN/A
11:58 PM
Oct 21
81 °FPassing clouds.12 mph89%29.89 "HgN/A
11:03 PM82 °FPartly cloudy.21 mph84%29.88 "HgN/A
10:58 PM82 °FPartly cloudy.21 mph85%29.90 "HgN/A
10:02 PM77 °FMostly cloudy.9 mph94%29.88 "HgN/A
9:58 PM77 °FLight rain. Fog.9 mph94%29.90 "Hg3 mi
8:58 PM84 °FClear.12 mph82%29.89 "HgN/A
8:03 PM82 °FPassing clouds.5 mph84%29.86 "Hg6 mi
7:58 PM82 °FPartly cloudy.6 mph87%29.88 "Hg6 mi
7:00 PM84 °FLight rain. Passing clouds.23 mph84%29.84 "HgN/A
6:58 PM84 °FPassing clouds.14 mph82%29.85 "HgN/A
5:58 PM85 °FSunny.15 mph82%29.83 "HgN/A
4:58 PM86 °FSunny.16 mph78%29.81 "HgN/A
3:58 PM87 °FSunny.18 mph77%29.80 "HgN/A
2:58 PM86 °FSunny.16 mph77%29.81 "HgN/A
Weather by CustomWeather, © 2014

See weather overviewHow to use our weather pages